DW4174 Weather Reports


time (UTC)temp
C
wind
direction
speed
KPH
gust
KPH
rain 1hr
cm
rain 24hr
cm
rain mn
cm
humidity
%
barometer
mb
20260508151812 26 117 4.8 9.7 0.00 0.00 0.00 26 1011.7
20260508150912 26 125 4.8 9.7 0.00 0.00 0.00 26 1011.8
20260508150012 25 128 6.4 11.3 0.00 0.00 0.00 27 1011.8
20260508145112 25 123 6.4 11.3 0.00 0.00 0.00 27 1011.9
20260508144212 25 102 6.4 12.9 0.00 0.00 0.00 28 1011.8
20260508143312 25 96 4.8 11.3 0.00 0.00 0.00 28 1011.8
20260508142412 24 103 6.4 14.5 0.00 0.00 0.00 29 1011.7
20260508141513 23 106 6.4 12.9 0.00 0.00 0.00 29 1011.7
20260508140612 23 105 6.4 12.9 0.00 0.00 0.00 29 1011.6
20260508135712 22 106 4.8 11.3 0.00 0.00 0.00 30 1011.5
20260508134812 22 112 3.2 9.7 0.00 0.00 0.00 30 1011.4
20260508133912 22 106 4.8 11.3 0.00 0.00 0.00 31 1011.2
20260508133013 21 107 4.8 12.9 0.00 0.00 0.00 31 1011.0
20260508132113 21 106 4.8 11.3 0.00 0.00 0.00 32 1011.0
20260508131212 21 111 4.8 11.3 0.00 0.00 0.00 32 1010.8
20260508130312 21 112 6.4 12.9 0.00 0.00 0.00 32 1010.6
20260508125412 21 109 6.4 14.5 0.00 0.00 0.00 32 1010.5
20260508124512 21 121 4.8 16.1 0.00 0.00 0.00 32 1010.3
20260508122712 21 153 4.8 11.3 0.00 0.00 0.00 32 1010.2
20260508121812 21 116 6.4 12.9 0.00 0.00 0.00 32 1010.0
20260508120912 21 110 4.8 14.5 0.00 0.00 0.00 32 1010.1
20260508120012 21 113 4.8 12.9 0.00 0.00 0.00 32 1010.0
20260508115112 21 114 3.2 11.3 0.00 0.00 0.00 33 1010.1
20260508114212 21 104 3.2 11.3 0.00 0.00 0.00 33 1010.0
20260508113312 21 117 1.6 6.4 0.00 0.00 0.00 33 1009.9
20260508112412 21 111 1.6 4.8 0.00 0.00 0.00 33 1010.0
20260508111512 21 111 3.2 6.4 0.00 0.00 0.00 32 1009.9
20260508105712 21 129 3.2 9.7 0.00 0.00 0.00 32 1009.9
20260508104812 21 120 3.2 11.3 0.00 0.00 0.00 31 1009.9
20260508103912 21 116 1.6 9.7 0.00 0.00 0.00 32 1009.8
20260508103012 21 115 3.2 9.7 0.00 0.00 0.00 32 1009.9
20260508102112 21 116 1.6 9.7 0.00 0.00 0.00 32 1009.8
20260508101212 21 116 3.2 6.4 0.00 0.00 0.00 32 1009.7
20260508095412 21 115 4.8 12.9 0.00 0.00 0.00 30 1009.6
20260508094512 22 107 6.4 14.5 0.00 0.00 0.00 29 1009.5
20260508093612 22 112 4.8 14.5 0.00 0.00 0.00 28 1009.6
20260508092712 22 110 4.8 12.9 0.00 0.00 0.00 27 1009.6
20260508091812 22 114 6.4 11.3 0.00 0.00 0.00 25 1009.5
20260508090912 22 104 8.0 16.1 0.00 0.00 0.00 24 1009.5
20260508085112 22 96 6.4 14.5 0.00 0.00 0.00 21 1009.6
20260508084212 22 92 4.8 11.3 0.00 0.00 0.00 22 1009.6
20260508083312 22 97 1.6 11.3 0.00 0.00 0.00 23 1009.7
20260508080612 22 0 0.0 0.0 0.00 0.00 0.00 25 1009.6
20260508074812 23 108 3.2 4.8 0.00 0.00 0.00 23 1009.7
20260508073911 23 107 3.2 6.4 0.00 0.00 0.00 23 1009.7
20260508073013 23 99 3.2 6.4 0.00 0.00 0.00 23 1009.6
20260508072112 23 91 3.2 6.4 0.00 0.00 0.00 23 1009.4
20260508070311 24 100 3.2 6.4 0.00 0.00 0.00 22 1009.4
20260508065411 24 113 3.2 6.4 0.00 0.00 0.00 22 1009.3
20260508064511 23 246 0.0 6.4 0.00 0.00 0.00 23 1009.2
20260508063611 23 0 0.0 0.0 0.00 0.00 0.00 23 1009.3
20260508062711 23 261 0.0 3.2 0.00 0.00 0.00 23 1009.4
20260508061811 23 0 0.0 0.0 0.00 0.00 0.00 23 1009.4
20260508060911 23 0 0.0 0.0 0.00 0.00 0.00 23 1009.3
20260508060011 24 0 0.0 0.0 0.00 0.00 0.00 21 1009.3
20260508054212 24 0 0.0 0.0 0.00 0.00 0.00 21 1009.3
20260508053311 25 261 0.0 1.6 0.00 0.00 0.00 20 1009.3
20260508052411 25 261 1.6 3.2 0.00 0.00 0.00 19 1009.2
20260508051511 25 262 0.0 1.6 0.00 0.00 0.00 19 1009.0
20260508050611 25 0 0.0 0.0 0.00 0.00 0.00 19 1009.0
20260508045711 25 0 0.0 0.0 0.00 0.00 0.00 19 1009.0
20260508044811 25 0 0.0 0.0 0.00 0.00 0.00 18 1008.9
20260508043012 26 0 0.0 0.0 0.00 0.00 0.00 17 1008.8
20260508042111 26 0 0.0 0.0 0.00 0.00 0.00 16 1008.7
20260508041211 27 0 0.0 0.0 0.00 0.00 0.00 16 1008.6
20260508040311 27 262 1.6 3.2 0.00 0.00 0.00 15 1008.6
20260508035411 27 262 3.2 4.8 0.00 0.00 0.00 14 1008.5
20260508034511 28 265 3.2 6.4 0.00 0.00 0.00 14 1008.3
20260508033611 28 274 3.2 6.4 0.00 0.00 0.00 14 1008.2
20260508032711 28 279 3.2 4.8 0.00 0.00 0.00 13 1008.0
20260508030911 30 270 4.8 6.4 0.00 0.00 0.00 13 1007.9
20260508030011 30 255 6.4 9.7 0.00 0.00 0.00 12 1007.7
20260508025111 31 255 8.0 12.9 0.00 0.00 0.00 11 1007.7
20260508024211 31 256 8.0 14.5 0.00 0.00 0.00 11 1007.6
20260508022411 31 253 9.7 16.1 0.00 0.00 0.00 10 1007.3
20260508021511 32 257 11.3 19.3 0.00 0.00 0.00 10 1007.3
20260508020611 32 262 11.3 22.5 0.00 0.00 0.00 9 1007.2
20260508015711 32 280 11.3 19.3 0.00 0.00 0.00 9 1007.1
20260508014811 33 278 9.7 17.7 0.00 0.00 0.00 9 1007.1
20260508013911 33 267 8.0 16.1 0.00 0.00 0.00 8 1007.0
20260508013012 33 263 8.0 14.5 0.00 0.00 0.00 8 1006.9
20260508012111 33 263 11.3 19.3 0.00 0.00 0.00 8 1007.0
20260508011211 34 276 9.7 17.7 0.00 0.00 0.00 8 1006.8
20260508010312 34 285 11.3 19.3 0.00 0.00 0.00 7 1006.9
20260508005411 35 266 9.7 20.9 0.00 0.00 0.00 7 1006.8
20260508004511 35 270 6.4 14.5 0.00 0.00 0.00 7 1006.7
20260508003612 35 231 4.8 14.5 0.00 0.00 0.00 7 1006.8
20260508001812 35 225 6.4 11.3 0.00 0.00 0.00 7 1006.7
20260508000911 35 265 6.4 19.3 0.00 0.00 0.00 6 1006.8
20260508000011 35 244 4.8 16.1 0.00 0.00 0.00 7 1006.8
20260507235111 35 192 4.8 11.3 0.00 0.00 0.00 6 1006.8
20260507234212 35 23 6.4 14.5 0.00 0.00 0.00 7 1006.9
20260507233311 35 291 4.8 16.1 0.00 0.00 0.00 6 1007.0
20260507232411 35 338 4.8 12.9 0.00 0.00 0.00 6 1007.0
20260507231511 35 307 6.4 14.5 0.00 0.00 0.00 6 1007.1
20260507230611 35 98 3.2 17.7 0.00 0.00 0.00 6 1007.1
20260507223012 35 267 4.8 14.5 0.00 0.00 0.00 6 1007.6
20260507222111 35 317 9.7 17.7 0.00 0.00 0.00 6 1007.8
20260507221211 36 301 9.7 19.3 0.00 0.00 0.00 6 1007.8
20260507220311 36 295 9.7 17.7 0.00 0.00 0.00 6 1008.0
20260507215411 35 272 4.8 16.1 0.00 0.00 0.00 6 1008.0
20260507213611 35 190 6.4 17.7 0.00 0.00 0.00 7 1008.3
20260507212711 35 190 4.8 16.1 0.00 0.00 0.00 7 1008.4
20260507211810 35 219 4.8 14.5 0.00 0.00 0.00 8 1008.6
20260507210911 36 182 6.4 12.9 0.00 0.00 0.00 8 1008.8
20260507210011 36 237 6.4 20.9 0.00 0.00 0.00 7 1008.8
20260507204210 36 273 4.8 16.1 0.00 0.00 0.00 8 1009.1
20260507203311 35 31 4.8 8.0 0.00 0.00 0.00 8 1009.2
20260507202411 34 299 6.4 14.5 0.00 0.00 0.00 8 1009.4
20260507201511 35 186 6.4 14.5 0.00 0.00 0.00 8 1009.5
20260507195710 35 213 4.8 12.9 0.00 0.00 0.00 9 1009.8
20260507194811 34 188 4.8 11.3 0.00 0.00 0.00 9 1009.9
20260507193912 34 184 4.8 16.1 0.00 0.00 0.00 10 1010.2
20260507193011 34 213 4.8 12.9 0.00 0.00 0.00 10 1010.3
20260507192111 34 154 3.2 12.9 0.00 0.00 0.00 10 1010.4
20260507191211 32 166 3.2 8.0 0.00 0.00 0.00 10 1010.6
20260507190310 32 161 4.8 6.4 0.00 0.00 0.00 10 1010.8
20260507184510 32 141 4.8 9.7 0.00 0.00 0.00 10 1010.9
20260507183610 32 117 6.4 12.9 0.00 0.00 0.00 11 1011.1
20260507182710 32 172 4.8 11.3 0.00 0.00 0.00 11 1011.2
20260507181810 32 249 4.8 14.5 0.00 0.00 0.00 12 1011.3
20260507180910 32 241 4.8 14.5 0.00 0.00 0.00 12 1011.4
20260507180011 31 196 6.4 20.9 0.00 0.00 0.00 13 1011.5
20260507175110 31 127 4.8 20.9 0.00 0.00 0.00 13 1011.5
20260507174210 31 160 4.8 11.3 0.00 0.00 0.00 15 1011.7
20260507173310 31 175 4.8 12.9 0.00 0.00 0.00 15 1011.9
20260507171511 30 151 6.4 14.5 0.00 0.00 0.00 15 1011.9
20260507170610 30 156 6.4 17.7 0.00 0.00 0.00 17 1012.0
20260507165710 28 146 3.2 14.5 0.00 0.00 0.00 18 1012.0
20260507164810 28 94 4.8 6.4 0.00 0.00 0.00 19 1012.1
20260507163910 28 116 4.8 11.3 0.00 0.00 0.00 19 1012.2
20260507163010 28 154 4.8 9.7 0.00 0.00 0.00 22 1012.1
20260507162110 27 150 3.2 9.7 0.00 0.00 0.00 23 1012.2
20260507161210 27 119 3.2 11.3 0.00 0.00 0.00 24 1012.3
20260507160310 27 129 4.8 8.0 0.00 0.00 0.00 24 1012.4
20260507155410 27 143 3.2 9.7 0.00 0.00 0.00 25 1012.5
20260507154510 27 99 4.8 11.3 0.00 0.00 0.00 24 1012.5
20260507153610 27 84 6.4 11.3 0.00 0.00 0.00 21 1012.5
20260507152710 26 91 8.0 12.9 0.00 0.00 0.00 22 1012.5